{"data":{"norad_id":67190,"intl_designator":"2025-303AD","name":"STARLINK-35888","alt_names":[],"object_type":"PAYLOAD","status":"ACTIVE","operator":null,"country":"US","launch_date":"2025-12-17","launch_site_code":"AFETR","launch_vehicle":null,"mission":null,"orbit_class":"UNKNOWN","rcs_meters":null,"size_class":null,"mass_kg":null,"dimensions":null,"purposes":["comms"],"wikipedia_slug":null,"has_3d_model":false,"image_url":null,"decayed_at":null,"tle_current":{"epoch":"2026-05-24T14:38:41.041536Z","epoch_age_seconds":119446,"freshness":"FRESH","line1":"1 67190U 25303AD  26144.61019724  .00014811  00000+0  54648-3 0  9997","line2":"2 67190  43.0002 242.1743 0001687 271.3333  88.7326 15.27590054 24346","mean_motion":15.27590054,"eccentricity":0.0001687,"inclination_deg":43.0002,"raan_deg":242.1743,"arg_perigee_deg":271.3333,"mean_anomaly_deg":88.7326,"bstar":0.00054648,"rev_number":2434,"period_min":94.266128286798,"perigee_km":481.8615138962,"apogee_km":484.17646792753,"semimajor_km":6861.1559909119,"source":"CELESTRAK","updated_at":"2026-05-25T13:38:21.485798Z"}}}